TimeMDT,TemperatureF,Dew PointF,Humidity,Sea Level PressureIn,VisibilityMPH,Wind Direction,Wind SpeedMPH,Gust SpeedMPH,PrecipitationIn,Events,Conditions,WindDirDegrees,DateUTC
12:53 AM,54.0,39.0,57,30.00,10.0,ESE,6.9,-,N/A,,Clear,120,2012-09-29 06:53:00
1:53 AM,53.1,39.0,59,30.01,10.0,ESE,11.5,-,N/A,,Clear,120,2012-09-29 07:53:00
2:53 AM,52.0,39.0,61,30.01,10.0,ESE,8.1,-,N/A,,Clear,120,2012-09-29 08:53:00
3:53 AM,52.0,39.0,61,30.01,10.0,ESE,8.1,-,N/A,,Clear,110,2012-09-29 09:53:00
4:53 AM,51.1,39.0,63,30.01,10.0,SE,10.4,-,N/A,,Clear,130,2012-09-29 10:53:00
5:53 AM,48.0,39.0,71,30.03,10.0,SE,8.1,-,N/A,,Clear,140,2012-09-29 11:53:00
6:53 AM,48.9,37.9,66,30.06,10.0,ESE,11.5,-,N/A,,Clear,120,2012-09-29 12:53:00
7:53 AM,50.0,39.0,66,30.10,10.0,East,4.6,-,N/A,,Clear,100,2012-09-29 13:53:00
8:53 AM,55.9,39.9,55,30.11,10.0,SE,10.4,-,N/A,,Clear,130,2012-09-29 14:53:00
9:53 AM,61.0,39.0,44,30.12,10.0,SE,6.9,-,N/A,,Clear,140,2012-09-29 15:53:00
10:53 AM,64.0,37.0,37,30.10,10.0,SSE,6.9,-,N/A,,Partly Cloudy,160,2012-09-29 16:53:00
11:53 AM,66.9,37.0,33,30.08,10.0,South,5.8,-,N/A,,Clear,170,2012-09-29 17:53:00
12:53 PM,71.1,37.9,30,30.05,10.0,SSW,4.6,-,N/A,,Clear,210,2012-09-29 18:53:00
1:53 PM,73.9,37.9,27,30.01,10.0,Variable,4.6,-,N/A,,Clear,0,2012-09-29 19:53:00
2:53 PM,75.9,37.0,24,29.99,10.0,WNW,5.8,-,N/A,,Scattered Clouds,290,2012-09-29 20:53:00
3:53 PM,77.0,37.0,24,29.96,10.0,WNW,9.2,16.1,N/A,,Scattered Clouds,300,2012-09-29 21:53:00
4:53 PM,78.1,33.1,19,29.95,10.0,WNW,9.2,-,N/A,,Scattered Clouds,290,2012-09-29 22:53:00
5:53 PM,77.0,30.9,19,29.96,10.0,West,9.2,-,N/A,,Scattered Clouds,280,2012-09-29 23:53:00
6:53 PM,73.9,37.9,27,29.97,10.0,WNW,9.2,-,N/A,,Scattered Clouds,300,2012-09-30 00:53:00
7:53 PM,72.0,35.1,26,29.99,10.0,North,8.1,-,N/A,,Partly Cloudy,10,2012-09-30 01:53:00
8:53 PM,66.0,36.0,33,30.01,10.0,NNE,8.1,-,N/A,,Clear,30,2012-09-30 02:53:00
9:53 PM,60.1,37.0,42,30.04,10.0,Calm,Calm,-,N/A,,Clear,0,2012-09-30 03:53:00
10:53 PM,61.0,37.0,41,30.03,10.0,Calm,Calm,-,N/A,,Clear,0,2012-09-30 04:53:00
11:53 PM,60.1,36.0,41,30.03,10.0,Calm,Calm,-,N/A,,Partly Cloudy,0,2012-09-30 05:53:00